TimeEDT,TemperatureF,Dew PointF,Humidity,Sea Level PressureIn,VisibilityMPH,Wind Direction,Wind SpeedMPH,Gust SpeedMPH,PrecipitationIn,Events,Conditions,WindDirDegrees,DateUTC
12:58 AM,55.4,39.4,55,30.23,10.0,NNW,8.1,-,N/A,,Clear,340,2013-03-28 04:58:00
1:58 AM,54.7,40.6,59,30.22,10.0,NNW,8.1,-,N/A,,Clear,340,2013-03-28 05:58:00
2:58 AM,54.7,42.4,63,30.21,10.0,NNW,9.2,-,N/A,,Clear,340,2013-03-28 06:58:00
3:58 AM,52.9,44.1,72,30.20,10.0,NNW,6.9,-,N/A,,Clear,340,2013-03-28 07:58:00
4:58 AM,52.0,45.5,79,30.20,10.0,NNW,9.2,-,N/A,,Clear,330,2013-03-28 08:58:00
5:58 AM,51.3,46.2,83,30.20,10.0,NNW,9.2,-,N/A,,Clear,330,2013-03-28 09:58:00
6:58 AM,50.5,46.2,85,30.21,10.0,NNW,10.4,-,N/A,,Clear,330,2013-03-28 10:58:00
7:58 AM,51.1,45.3,81,30.23,10.0,NNW,10.4,-,N/A,,Clear,340,2013-03-28 11:58:00
8:58 AM,56.8,43.5,61,30.24,10.0,North,10.4,-,N/A,,Clear,360,2013-03-28 12:58:00
9:58 AM,62.8,42.6,48,30.27,10.0,North,10.4,-,N/A,,Clear,350,2013-03-28 13:58:00
10:58 AM,67.3,43.0,41,30.28,10.0,North,9.2,-,N/A,,Clear,360,2013-03-28 14:58:00
11:58 AM,69.3,44.1,40,30.27,10.0,NNW,8.1,-,N/A,,Clear,340,2013-03-28 15:58:00
12:58 PM,71.1,43.2,37,30.26,10.0,North,10.4,-,N/A,,Clear,350,2013-03-28 16:58:00
1:58 PM,71.6,47.1,42,30.23,10.0,ENE,8.1,-,N/A,,Clear,60,2013-03-28 17:58:00
2:58 PM,72.1,48.9,44,30.21,10.0,ENE,11.5,-,N/A,,Clear,60,2013-03-28 18:58:00
3:58 PM,72.0,49.6,45,30.19,10.0,East,12.7,-,N/A,,Clear,100,2013-03-28 19:58:00
4:58 PM,71.4,48.6,44,30.18,10.0,ENE,15.0,-,N/A,,Clear,60,2013-03-28 20:58:00
5:58 PM,70.3,48.0,45,30.19,10.0,ENE,12.7,-,N/A,,Clear,60,2013-03-28 21:58:00
6:58 PM,68.7,47.8,47,30.20,10.0,East,9.2,-,N/A,,Clear,80,2013-03-28 22:58:00
7:36 PM,66.2,48.2,52,30.21,10.0,ENE,6.9,-,N/A,,Light Drizzle,70,2013-03-28 23:36:00
7:45 PM,66.2,48.2,52,30.21,10.0,ENE,5.8,-,N/A,,Clear,60,2013-03-28 23:45:00
7:58 PM,64.9,48.9,56,30.22,10.0,NE,4.6,-,0.00,,Clear,50,2013-03-28 23:58:00
8:58 PM,62.6,47.7,58,30.23,10.0,NE,4.6,-,N/A,,Clear,40,2013-03-29 00:58:00
9:58 PM,62.1,46.0,56,30.25,10.0,NNE,4.6,-,N/A,,Clear,20,2013-03-29 01:58:00
10:58 PM,60.1,50.0,69,30.26,10.0,NNE,4.6,-,N/A,,Clear,30,2013-03-29 02:58:00
11:58 PM,59.7,45.9,60,30.26,10.0,NNW,2.3,-,N/A,,Clear,340,2013-03-29 03:58:00